#timestamp,LO_Frequency,Hit,StdDev 
1458806415.6,286046997.5,N
1458806435.4,286046999.1,N
1458806455.3,286046999.2,N
1458806475.1,286047004.2,N
1458806495.8,286047002.7,N
1458806515.7,286047001.1,N
1458806535.5,286046998.6,N
1458806555.3,286046997.2,N
1458806575.2,286046996.9,N
1458806595.9,286046995.0,N
1458806615.7,286046999.1,N
1458806635.6,286046997.3,N
1458806655.4,286046994.6,N
1458806675.2,286046994.2,N
1458806695.1,286046994.3,N
1458806696.0,286046994.3,N
1458806715.8,286046991.9,N
1458806735.6,286046994.8,N
1458806755.4,286046992.0,N
1458806775.3,286046995.8,N
1458806795.1,286046997.1,N
1458806815.8,286047001.2,N
1458806835.7,286047001.5,N
1458806855.5,286046999.6,N
1458806875.3,286046995.1,N
1458806895.2,286046994.9,N
1458806915.9,286046997.9,N
1458806935.7,286046995.2,N
1458806955.6,286046999.2,N
1458806975.4,286046998.7,N
1458806995.2,286046998.6,N
1458807015.1,286047002.1,N
1458807016.0,286047002.1,N
1458807035.8,286046998.3,N
1458807055.6,286046999.3,N
1458807075.5,286046998.3,N
1458807095.3,286046999.0,N
1458807115.1,286046996.3,N
1458807135.8,286046997.8,N
1458807155.7,286046996.7,N
1458807175.5,286046996.8,N
1458807195.3,286046997.7,N
1458807215.2,286046997.2,N
1458807235.9,286046998.0,N
1458807255.7,286046996.0,N
1458807275.6,286046995.6,N
1458807295.4,286046997.7,N
1458807315.2,286046995.8,N
1458807335.1,286046995.4,N
1458807336.0,286046995.4,N
1458807355.8,286046994.2,N
1458807375.6,286046992.7,Y
1458807395.5,286046988.6,P
1458807415.3,286046989.0,N
1458807435.1,286046988.2,N
1458807455.9,286046988.2,N
1458807475.7,286046983.7,Y
1458807495.5,286046993.5,P
1458807515.4,286046993.3,P
1458807535.2,286046996.2,N
1458807555.0,286046995.8,N
1458807555.9,286046995.8,N
1458807575.8,286046993.4,Y
1458807595.6,286046998.9,P
1458807615.4,286046995.5,N
1458807635.3,286046999.1,N
1458807655.1,286046997.2,N
1458807656.0,286046997.2,N
1458807675.8,286046999.5,N
1458807695.7,286046995.5,N
1458807715.5,286047000.4,N
1458807735.3,286047002.7,N
1458807755.2,286046998.7,N
1458807775.9,286046998.0,N
1458807795.7,286046995.2,N
1458807815.5,286046996.4,N
1458807835.4,286046997.9,N
1458807855.2,286046998.1,N
1458807875.0,286047000.4,N
1458807875.9,286047000.4,N
1458807895.8,286047003.7,N
1458807915.6,286047004.5,N
1458807935.4,286047005.3,N
1458807955.3,286047004.4,N
1458807975.1,286046998.1,N
1458807976.0,286046998.1,N
1458807995.8,286046996.5,N
1458808015.7,286047001.0,N
1458808035.5,286047002.0,N
1458808055.3,286046998.5,N
1458808075.2,286046997.3,N
1458808095.9,286046995.8,N
1458808115.7,286046996.0,N
1458808135.5,286046993.9,N
1458808155.4,286046994.0,N
1458808175.2,286046996.2,N
1458808195.1,286046990.4,Y
1458808196.0,286046990.4,P
1458808215.8,286046988.7,N
1458808235.6,286046988.6,N
1458808255.4,286046990.6,N
1458808275.3,286046991.1,N
1458808295.1,286046990.8,N
1458808315.8,286046994.7,N
1458808335.7,286046996.0,N
1458808355.5,286046999.2,N
1458808375.3,286047002.2,N
1458808395.2,286047001.0,N
1458808415.9,286047003.5,N
1458808435.7,286047003.4,N
1458808455.6,286047001.6,N
1458808475.4,286047001.9,N
1458808495.2,286047008.0,N
1458808515.1,286047010.4,N
1458808516.0,286047010.4,N
1458808535.8,286047009.9,N
1458808555.6,286047006.3,N
1458808575.4,286047007.1,N
1458808595.3,286047010.0,N
1458808615.1,286047007.8,N
1458808635.8,286047010.0,N
1458808655.7,286047009.5,N
1458808675.5,286047009.6,N
1458808695.3,286047009.9,N
1458808715.2,286047008.6,N
1458808735.9,286047012.0,N
1458808755.7,286047008.6,N
1458808775.6,286047003.4,N
1458808795.4,286047000.7,N
1458808815.2,286046998.7,N
1458808835.1,286046997.0,N
1458808836.0,286046997.0,N
1458808855.8,286046999.9,N
1458808875.6,286047002.5,N
1458808895.5,286047006.9,N
1458808915.3,286047007.0,N
1458808935.1,286047010.2,N
1458808955.8,286047004.8,N
1458808975.7,286047002.4,N
1458808995.5,286047001.0,N
1458809015.3,286047002.4,N
1458809035.2,286046997.2,N
1458809055.9,286046999.1,N
1458809075.7,286047001.6,N
1458809095.6,286047007.5,N
1458809115.4,286047009.9,N
1458809135.2,286047010.3,N
1458809155.1,286047009.0,N
1458809156.0,286047009.0,N
1458809175.8,286047007.6,N
1458809195.6,286047003.3,N
1458809215.5,286047002.4,N
1458809235.3,286046999.8,N
1458809255.1,286047003.4,N
1458809275.9,286047003.7,N
1458809295.7,286047006.8,N
1458809315.5,286047004.8,N
1458809335.3,286047005.8,N
1458809355.2,286047001.7,N
1458809375.0,286047000.9,N
1458809375.9,286047000.9,N
1458809395.7,286047001.9,N
1458809415.6,286047004.6,N
1458809435.4,286047009.6,N
1458809455.2,286047013.8,Y
1458809475.1,286047012.5,P
1458809476.0,286047012.5,P
1458809495.8,286047018.6,P
1458809515.7,286047017.0,Y
1458809535.5,286047004.7,P
1458809555.3,286047005.2,N
1458809575.1,286046999.9,N
1458809595.9,286047000.1,N
1458809615.7,286046998.5,N
1458809635.5,286047002.1,N
1458809655.4,286047000.6,N
1458809675.2,286047000.3,N
1458809695.0,286047002.5,N
1458809695.9,286047002.5,N
1458809715.8,286047004.3,N
1458809735.6,286046999.7,N
1458809755.4,286047000.0,N
1458809775.3,286047000.3,N
1458809795.1,286047004.3,N
1458809796.0,286047004.3,N
1458809815.8,286047002.9,N
1458809835.7,286047004.2,N
1458809855.5,286047003.9,N
1458809875.3,286047002.6,N
1458809895.1,286047001.2,N
1458809915.9,286046998.5,N
1458809935.7,286046995.2,N
1458809955.5,286046998.8,N
1458809975.4,286047002.2,N
1458809995.2,286047004.1,N
